Regional Weather Roundup
Issued by NWS Northern Indiana

Current Version | Previous Version | Text Only | Print | Product List | Glossary On
Versions: 1 2 3 4 5 6 7 8 9 10 11 12 13 14 15 16 17 18 19 20 21 22 23 24 25 26 27 28 29 30 31 32 33 34 35 36 37 38 39 40 41 42 43 44 45 46 47 48 49 50
000 ASUS43 KIWX 210010 RWRIWX KIWX WEATHER ROUNDUP NATIONAL WEATHER SERVICE NORTHERN INDIANA 800 PM EDT TUE APR 20 2021 NOTE: "FAIR" INDICATES FEW OR NO CLOUDS BELOW 12,000 FEET WITH NO SIGNIFICANT WEATHER AND/OR OBSTRUCTIONS TO VISIBILITY. * THESE STATIONS ARE NOT UNDER NWS QUALITY CONTROL. THEY ALSO MAY NOT REPORT WEATHER SUCH AS PRECIPITATION OR FOG. INZ001>027-210100- NORTHERN INDIANA CITY SKY/WX TMP DP RH WIND PRES REMARKS GARY* CLOUDY 37 23 56 NE7 30.08S VALPARAISO CLOUDY 36 24 62 N5 30.06S 6HR MIN TEMP: 33; 6HR MAX TEMP: 37; 6HR PCP: TRACE; MICHIGAN CITY* CLOUDY 36 21 55 N6 30.06S LAPORTE* MOCLDY 35 22 60 N7 30.05S WCI 29 6HR MIN TEMP: 32; 6HR MAX TEMP: 36; KNOX* MOCLDY 34 27 75 E5 30.05F WCI 30 SOUTH BEND CLOUDY 36 20 52 NW7 30.04S 6HR MIN TEMP: 33; 6HR MAX TEMP: 37; 6HR PCP: 0.01; ELKHART* MOCLDY 32 25 74 NE6 30.03F WCI 26 GOSHEN LGT SNOW 31 28 89 NW14 30.03S FOG WCI 21 6HR MIN TEMP: 32; 6HR MAX TEMP: 33; 6HR PCP: 0.09; MONTICELLO* LGT SNOW 31 30 95 N7 30.06R WCI 24 6HR MIN TEMP: 31; 6HR MAX TEMP: 34; 6HR PCP: 0.12; LOGANSPORT* LGT SNOW 32 32 100 CALM 30.06R ROCHESTER* LGT SNOW 34 32 93 N6 30.05S WCI 29 PLYMOUTH* CLEAR 30 28 93 CALM 30.04F FOG WARSAW* LGT SNOW 32 30 93 N6 30.03F WCI 26 AUBURN* LGT SNOW 32 32 100 N3 30.02S VSB 3/4 FORT WAYNE LGT SNOW 31 30 96 N12 30.01S VSB 3/4 WCI 22 6HR MIN TEMP: 31; 6HR MAX TEMP: 37; 6HR PCP: 0.35; HUNTINGTON* LGT SNOW 31 30 96 N6 30.02S WCI 25 6HR MIN TEMP: 31; 6HR MAX TEMP: 35; 6HR PCP: 0.21; PERU/GRISSOM LGT SNOW 31 31 100 N10 30.02S FOG WCI 23 6HR MIN TEMP: 31; 6HR MAX TEMP: 35; 6HR PCP: 0.22; $$ INZ028>050-210100- CENTRAL INDIANA CITY SKY/WX TMP DP RH WIND PRES REMARKS LAFAYETTE SNOW 36 29 75 N10G22 30.06R VSB 1/2 6HR MIN TEMP: 36; 6HR MAX TEMP: 39; 6HR PCP: 0.37; KOKOMO* LGT SNOW 32 32 100 N13 30.04R FOG WCI 22 6HR MIN TEMP: 32; 6HR MAX TEMP: 37; 6HR PCP: 0.12; MARION* LGT SNOW 32 32 100 N7 30.02R WCI 25 6HR MIN TEMP: -10; 6HR MAX TEMP: 83; 6HR PCP: 0.19; MUNCIE* SNOW 34 30 85 N13 29.99R VSB 1/4 WCI 25 6HR MIN TEMP: 34; 6HR MAX TEMP: 44; 6HR PCP: 0.16; PORTLAND* LGT SNOW 32 32 100 N12 29.97S WCI 23 INDIANAPOLIS SNOW 32 32 100 N9 30.01R VSB 1/2 WCI 24 6HR MIN TEMP: 32; 6HR MAX TEMP: 44; 6HR PCP: 0.20; $$ MIZ043>046-050>051-056>058-064>065-071>073-077>080-210100- SOUTHWEST LOWER MICHIGAN CITY SKY/WX TMP DP RH WIND PRES REMARKS BATTLE CREEK LGT SNOW 33 30 88 N3 30.02F FOG 6HR MIN TEMP: 33; 6HR MAX TEMP: 36; 6HR PCP: 0.01; BENTON HARBOR CLOUDY 37 21 52 VRB5 30.05S 6HR MIN TEMP: 37; 6HR MAX TEMP: 39; 6HR PCP: TRACE; COLDWATER* LGT SNOW 31 30 94 N5 30.01F VSB 3/4 WCI 27 6HR MIN TEMP: 31; 6HR MAX TEMP: 33; HILLSDALE* LGT SNOW 31 31 98 N6 29.98F VSB 3/4 WCI 25 6HR MIN TEMP: 31; 6HR MAX TEMP: 32; 6HR PCP: 0.09; HOLLAND MOCLDY 37 22 54 NW9 30.04F 6HR MIN TEMP: 37; 6HR MAX TEMP: 41; GRAND RAPIDS CLOUDY 38 18 44 NW10 30.02S 6HR MIN TEMP: 38; 6HR MAX TEMP: 40; KALAMAZOO LGT SNOW 33 29 85 NE3 30.03S FOG 6HR MIN TEMP: 33; 6HR MAX TEMP: 38; 6HR PCP: 0.01; STURGIS* LGT SNOW 32 31 97 NW3 30.01F 6HR MIN TEMP: 31; 6HR MAX TEMP: 33; 6HR PCP: 0.04; THREE RIVERS* LGT SNOW 33 31 94 NW5 30.03F VSB 1 WCI 28 6HR MIN TEMP: 32; 6HR MAX TEMP: 35; $$ OHZ001>008-015>018-024>025-210100- NORTHWEST OHIO CITY SKY/WX TMP DP RH WIND PRES REMARKS WAUSEON* SNOW 32 32 100 N5 30.00F VSB 1/2 WCI 27 DEFIANCE SNOW 33 30 88 N7 30.01S VSB 1/4 WCI 27 6HR MIN TEMP: 33; 6HR MAX TEMP: 39; 6HR PCP: 0.17; FINDLAY SNOW 34 31 88 N13 29.97F VSB 1/2 WCI 25 6HR MIN TEMP: 34; 6HR MAX TEMP: 44; 6HR PCP: 0.05; OTTAWA* CLOUDY 32 30 93 N13 30.01S VSB 1 WCI 22 TOLEDO EXPRESS SNOW 33 30 88 N5 30.01S VSB 1/2 WCI 29 6HR MIN TEMP: 33; 6HR MAX TEMP: 39; 6HR PCP: 0.21; VAN WERT* LGT SNOW 32 32 100 N6 30.01S WCI 26 LIMA SNOW 33 31 92 N10 29.97S VSB 1/2 WCI 25 6HR MIN TEMP: 33; 6HR MAX TEMP: 43; 6HR PCP: 0.05; $$ AND FOR LAKE MICHIGAN COASTAL AND OPEN LAKE BUOY OBSERVATIONS STATION/POSITION TEMP WIND PRES VSBY WAVE AIR SEA DIR/SP/G HT/PER (F) (DEG/KT/KT) (MB) (MI) (FT/S) CALUMET HARBOR 60/ 5/ 7 1017.6R MICHIGAN CITY 36 20/ 11/ 12 1019.6S BURNS HARBOR 37 40/ 6/ 7 1018.3S SAINT JOSEPH 37 360/ 12/ 16 1018.3 4 MI NW BRIDGMAN 38 47 360/ 12/ 16 1018.9F 2/ 6 $$ &&

USA.gov is the U.S. government's official web portal to all federal, state and local government web resources and services.